| time (UTC) | temp C | wind direction | speed KPH | gust KPH | rain 1hr cm | rain 24hr cm | rain mn cm | humidity % | barometer mb |
| 20260504232037 | 22 | 155 | 4.8 | 11.3 | 0.00 | 0.00 | 0.00 | 37 | 1014.7 |
| 20260504231538 | 22 | 211 | 3.2 | 9.7 | 0.00 | 0.00 | 0.00 | 36 | 1014.7 |
| 20260504231037 | 22 | 161 | 3.2 | 9.7 | 0.00 | 0.00 | 0.00 | 37 | 1014.6 |
| 20260504230539 | 22 | 64 | 1.6 | 11.3 | 0.00 | 0.00 | 0.00 | 36 | 1014.4 |
| 20260504230036 | 22 | 179 | 3.2 | 16.1 | 0.00 | 0.00 | 0.00 | 37 | 1014.6 |
| 20260504225536 | 22 | 217 | 0.0 | 8.0 | 0.00 | 0.00 | 0.00 | 37 | 1014.6 |
| 20260504225037 | 22 | 66 | 1.6 | 6.4 | 0.00 | 0.00 | 0.00 | 38 | 1014.6 |
| 20260504224541 | 22 | 213 | 0.0 | 12.9 | 0.00 | 0.00 | 0.00 | 38 | 1014.5 |
| 20260504224036 | 23 | 282 | 3.2 | 12.9 | 0.00 | 0.00 | 0.00 | 35 | 1014.5 |
| 20260504223536 | 23 | 210 | 1.6 | 8.0 | 0.00 | 0.00 | 0.00 | 36 | 1014.5 |
| 20260504223036 | 23 | 219 | 3.2 | 9.7 | 0.00 | 0.00 | 0.00 | 36 | 1014.6 |
| 20260504222539 | 23 | 193 | 3.2 | 9.7 | 0.00 | 0.00 | 0.00 | 36 | 1014.4 |
| 20260504222038 | 23 | 232 | 0.0 | 14.5 | 0.00 | 0.00 | 0.00 | 35 | 1014.4 |
| 20260504221535 | 23 | 188 | 3.2 | 14.5 | 0.00 | 0.00 | 0.00 | 34 | 1014.4 |
| 20260504221037 | 23 | 228 | 0.0 | 12.9 | 0.00 | 0.00 | 0.00 | 35 | 1014.4 |
| 20260504220535 | 23 | 238 | 4.8 | 12.9 | 0.00 | 0.00 | 0.00 | 32 | 1014.4 |
| 20260504220035 | 24 | 281 | 3.2 | 11.3 | 0.00 | 0.00 | 0.00 | 32 | 1014.4 |
| 20260504215536 | 24 | 229 | 3.2 | 9.7 | 0.00 | 0.00 | 0.00 | 33 | 1014.5 |
| 20260504215034 | 24 | 220 | 1.6 | 9.7 | 0.00 | 0.00 | 0.00 | 32 | 1014.4 |
| 20260504214534 | 24 | 202 | 1.6 | 9.7 | 0.00 | 0.00 | 0.00 | 34 | 1014.6 |
| 20260504214034 | 24 | 72 | 1.6 | 14.5 | 0.00 | 0.00 | 0.00 | 33 | 1014.6 |
| 20260504213534 | 24 | 223 | 4.8 | 16.1 | 0.00 | 0.00 | 0.00 | 33 | 1014.5 |
| 20260504213037 | 24 | 138 | 4.8 | 16.1 | 0.00 | 0.00 | 0.00 | 32 | 1014.4 |
| 20260504212533 | 24 | 93 | 3.2 | 12.9 | 0.00 | 0.00 | 0.00 | 32 | 1014.5 |
| 20260504212034 | 24 | 225 | 3.2 | 16.1 | 0.00 | 0.00 | 0.00 | 36 | 1014.4 |
| 20260504211532 | 24 | 211 | 8.0 | 16.1 | 0.00 | 0.00 | 0.00 | 33 | 1014.5 |
| 20260504211033 | 24 | 199 | 4.8 | 14.5 | 0.00 | 0.00 | 0.00 | 33 | 1014.6 |
| 20260504210532 | 24 | 22 | 3.2 | 16.1 | 0.00 | 0.00 | 0.00 | 34 | 1014.5 |
| 20260504210031 | 24 | 190 | 6.4 | 16.1 | 0.00 | 0.00 | 0.00 | 33 | 1014.5 |
| 20260504205531 | 24 | 232 | 3.2 | 16.1 | 0.00 | 0.00 | 0.00 | 35 | 1014.6 |
| 20260504205029 | 24 | 202 | 1.6 | 16.1 | 0.00 | 0.00 | 0.00 | 33 | 1014.7 |
| 20260504204529 | 24 | 179 | 3.2 | 14.5 | 0.00 | 0.00 | 0.00 | 35 | 1014.7 |
| 20260504204029 | 25 | 234 | 3.2 | 12.9 | 0.00 | 0.00 | 0.00 | 34 | 1014.9 |
| 20260504203528 | 24 | 86 | 1.6 | 19.3 | 0.00 | 0.00 | 0.00 | 36 | 1014.8 |
| 20260504203028 | 24 | 226 | 4.8 | 19.3 | 0.00 | 0.00 | 0.00 | 35 | 1014.9 |
| 20260504202529 | 25 | 261 | 4.8 | 11.3 | 0.00 | 0.00 | 0.00 | 33 | 1014.9 |
| 20260504202027 | 25 | 194 | 1.6 | 11.3 | 0.00 | 0.00 | 0.00 | 34 | 1015.0 |
| 20260504201527 | 25 | 152 | 1.6 | 11.3 | 0.00 | 0.00 | 0.00 | 34 | 1015.0 |
| 20260504201025 | 25 | 161 | 3.2 | 11.3 | 0.00 | 0.00 | 0.00 | 38 | 1015.1 |
| 20260504200525 | 25 | 245 | 4.8 | 11.3 | 0.00 | 0.00 | 0.00 | 34 | 1015.2 |
| 20260504200028 | 25 | 168 | 3.2 | 9.7 | 0.00 | 0.00 | 0.00 | 35 | 1015.4 |
| 20260504195523 | 25 | 198 | 3.2 | 11.3 | 0.00 | 0.00 | 0.00 | 34 | 1015.3 |
| 20260504195023 | 25 | 127 | 1.6 | 8.0 | 0.00 | 0.00 | 0.00 | 36 | 1015.3 |
| 20260504194529 | 24 | 96 | 0.0 | 9.7 | 0.00 | 0.00 | 0.00 | 34 | 1015.4 |
| 20260504194022 | 24 | 344 | 4.8 | 9.7 | 0.00 | 0.00 | 0.00 | 32 | 1015.4 |
| 20260504193522 | 25 | 205 | 3.2 | 9.7 | 0.00 | 0.00 | 0.00 | 36 | 1015.5 |
| 20260504193022 | 24 | 134 | 3.2 | 8.0 | 0.00 | 0.00 | 0.00 | 32 | 1015.6 |
| 20260504192521 | 25 | 107 | 1.6 | 9.7 | 0.00 | 0.00 | 0.00 | 35 | 1015.7 |
| 20260504192021 | 25 | 233 | 1.6 | 12.9 | 0.00 | 0.00 | 0.00 | 35 | 1015.8 |
| 20260504191520 | 25 | 243 | 1.6 | 12.9 | 0.00 | 0.00 | 0.00 | 37 | 1015.8 |
| 20260504191019 | 24 | 305 | 3.2 | 9.7 | 0.00 | 0.00 | 0.00 | 33 | 1015.8 |
| 20260504190518 | 25 | 147 | 4.8 | 8.0 | 0.00 | 0.00 | 0.00 | 37 | 1016.0 |
| 20260504190023 | 24 | 184 | 3.2 | 8.0 | 0.00 | 0.00 | 0.00 | 42 | 1016.1 |
| 20260504185515 | 24 | 134 | 3.2 | 9.7 | 0.00 | 0.00 | 0.00 | 34 | 1016.1 |
| 20260504185015 | 24 | 201 | 0.0 | 8.0 | 0.00 | 0.00 | 0.00 | 37 | 1016.2 |
| 20260504184518 | 24 | 198 | 3.2 | 14.5 | 0.00 | 0.00 | 0.00 | 37 | 1016.4 |
| 20260504184014 | 24 | 270 | 6.4 | 14.5 | 0.00 | 0.00 | 0.00 | 36 | 1016.3 |
| 20260504183513 | 23 | 245 | 1.6 | 14.5 | 0.00 | 0.00 | 0.00 | 39 | 1016.4 |
| 20260504183012 | 23 | 205 | 4.8 | 12.9 | 0.00 | 0.00 | 0.00 | 35 | 1016.6 |
| 20260504182513 | 23 | 271 | 1.6 | 12.9 | 0.00 | 0.00 | 0.00 | 38 | 1016.7 |
| 20260504182010 | 23 | 205 | 3.2 | 12.9 | 0.00 | 0.00 | 0.00 | 37 | 1016.7 |
| 20260504181512 | 23 | 255 | 3.2 | 12.9 | 0.00 | 0.00 | 0.00 | 38 | 1016.8 |
| 20260504181014 | 23 | 274 | 4.8 | 9.7 | 0.00 | 0.00 | 0.00 | 37 | 1016.8 |
| 20260504180510 | 23 | 250 | 4.8 | 11.3 | 0.00 | 0.00 | 0.00 | 35 | 1016.8 |
| 20260504180007 | 23 | 284 | 1.6 | 9.7 | 0.00 | 0.00 | 0.00 | 38 | 1016.9 |
| 20260504175509 | 22 | 313 | 3.2 | 9.7 | 0.00 | 0.00 | 0.00 | 39 | 1016.9 |
| 20260504175010 | 21 | 89 | 1.6 | 4.8 | 0.00 | 0.00 | 0.00 | 36 | 1017.0 |
| 20260504174509 | 22 | 43 | 0.0 | 11.3 | 0.00 | 0.00 | 0.00 | 37 | 1017.0 |
| 20260504174006 | 22 | 210 | 4.8 | 17.7 | 0.00 | 0.00 | 0.00 | 35 | 1017.1 |
| 20260504173506 | 23 | 211 | 6.4 | 17.7 | 0.00 | 0.00 | 0.00 | 36 | 1017.0 |
| 20260504173006 | 22 | 138 | 3.2 | 12.9 | 0.00 | 0.00 | 0.00 | 39 | 1017.0 |
| 20260504172504 | 22 | 147 | 4.8 | 12.9 | 0.00 | 0.00 | 0.00 | 36 | 1017.1 |
| 20260504172003 | 22 | 319 | 3.2 | 9.7 | 0.00 | 0.00 | 0.00 | 37 | 1017.1 |
| 20260504171503 | 22 | 265 | 0.0 | 9.7 | 0.00 | 0.00 | 0.00 | 43 | 1017.2 |
| 20260504171003 | 22 | 234 | 3.2 | 6.4 | 0.00 | 0.00 | 0.00 | 37 | 1017.2 |
| 20260504170502 | 22 | 228 | 1.6 | 6.4 | 0.00 | 0.00 | 0.00 | 41 | 1017.3 |
| 20260504151047 | 19 | 304 | 1.6 | 11.3 | 0.00 | 0.00 | 0.00 | 43 | 1019.4 |
| 20260504150547 | 19 | 236 | 3.2 | 11.3 | 0.00 | 0.00 | 0.00 | 38 | 1019.4 |
| 20260504141036 | 17 | 267 | 1.6 | 6.4 | 0.00 | 0.00 | 0.00 | 49 | 1019.2 |
| 20260504140535 | 17 | 336 | 1.6 | 11.3 | 0.00 | 0.00 | 0.00 | 50 | 1019.1 |
| 20260504130522 | 13 | 238 | 0.0 | 4.8 | 0.00 | 0.00 | 0.00 | 65 | 1019.1 |
| 20260504110503 | 4 | 254 | 0.0 | 1.6 | 0.00 | 0.00 | 0.00 | 91 | 1018.6 |
| 20260504100600 | 3 | 253 | 0.0 | 0.0 | 0.00 | 0.00 | 0.00 | 92 | 1018.7 |
| 20260504100104 | 3 | 253 | 0.0 | 0.0 | 0.00 | 0.00 | 0.00 | 92 | 1018.6 |
| 20260504090107 | 4 | 260 | 0.0 | 0.0 | 0.00 | 0.00 | 0.00 | 90 | 1018.9 |
| 20260504081553 | 4 | 260 | 0.0 | 0.0 | 0.00 | 0.00 | 0.00 | 89 | 1018.3 |
| 20260504081049 | 5 | 260 | 0.0 | 0.0 | 0.00 | 0.00 | 0.00 | 90 | 1018.4 |
| 20260504080549 | 5 | 260 | 0.0 | 0.0 | 0.00 | 0.00 | 0.00 | 89 | 1018.3 |
| 20260504050532 | 6 | 223 | 0.0 | 0.0 | 0.00 | 0.00 | 0.00 | 83 | 1018.9 |
| 20260504045530 | 6 | 223 | 0.0 | 0.0 | 0.00 | 0.00 | 0.00 | 83 | 1018.8 |
| 20260504045030 | 6 | 223 | 0.0 | 0.0 | 0.00 | 0.00 | 0.00 | 83 | 1018.9 |
| 20260504044531 | 6 | 223 | 0.0 | 0.0 | 0.00 | 0.00 | 0.00 | 83 | 1018.8 |
| 20260504044030 | 6 | 223 | 0.0 | 0.0 | 0.00 | 0.00 | 0.00 | 82 | 1018.8 |
| 20260504043528 | 7 | 223 | 0.0 | 0.0 | 0.00 | 0.00 | 0.00 | 82 | 1018.7 |
| 20260504043042 | 7 | 223 | 0.0 | 0.0 | 0.00 | 0.00 | 0.00 | 82 | 1018.6 |
| 20260504042527 | 7 | 223 | 0.0 | 0.0 | 0.00 | 0.00 | 0.00 | 82 | 1018.7 |
| 20260504042026 | 7 | 223 | 0.0 | 0.0 | 0.00 | 0.00 | 0.00 | 82 | 1018.7 |
| 20260504041530 | 7 | 223 | 0.0 | 0.0 | 0.00 | 0.00 | 0.00 | 81 | 1018.6 |
| 20260504041026 | 7 | 223 | 0.0 | 0.0 | 0.00 | 0.00 | 0.00 | 81 | 1018.5 |
| 20260504040524 | 7 | 223 | 0.0 | 0.0 | 0.00 | 0.00 | 0.00 | 80 | 1018.5 |
| 20260504040025 | 7 | 223 | 0.0 | 0.0 | 0.00 | 0.00 | 0.00 | 79 | 1018.5 |
| 20260504035525 | 7 | 223 | 0.0 | 0.0 | 0.00 | 0.00 | 0.00 | 79 | 1018.4 |
| 20260504035024 | 7 | 223 | 0.0 | 0.0 | 0.00 | 0.00 | 0.00 | 78 | 1018.5 |
| 20260504034523 | 7 | 223 | 0.0 | 0.0 | 0.00 | 0.00 | 0.00 | 78 | 1018.5 |
| 20260504034022 | 7 | 223 | 0.0 | 0.0 | 0.00 | 0.00 | 0.00 | 78 | 1018.5 |
| 20260504033522 | 7 | 223 | 0.0 | 0.0 | 0.00 | 0.00 | 0.00 | 78 | 1018.6 |
| 20260504033024 | 8 | 223 | 0.0 | 0.0 | 0.00 | 0.00 | 0.00 | 76 | 1018.7 |
| 20260504032522 | 8 | 223 | 0.0 | 0.0 | 0.00 | 0.00 | 0.00 | 76 | 1018.7 |
| 20260504032022 | 8 | 223 | 0.0 | 0.0 | 0.00 | 0.00 | 0.00 | 75 | 1018.6 |
| 20260504031522 | 8 | 223 | 0.0 | 0.0 | 0.00 | 0.00 | 0.00 | 74 | 1018.7 |
| 20260504031021 | 8 | 223 | 0.0 | 0.0 | 0.00 | 0.00 | 0.00 | 73 | 1018.8 |
| 20260504030521 | 8 | 223 | 0.0 | 0.0 | 0.00 | 0.00 | 0.00 | 72 | 1018.8 |
| 20260504030021 | 8 | 223 | 0.0 | 0.0 | 0.00 | 0.00 | 0.00 | 71 | 1018.9 |
| 20260504025521 | 8 | 223 | 0.0 | 0.0 | 0.00 | 0.00 | 0.00 | 71 | 1018.8 |
| 20260504025021 | 9 | 223 | 0.0 | 0.0 | 0.00 | 0.00 | 0.00 | 71 | 1018.8 |
| 20260504024521 | 9 | 223 | 0.0 | 0.0 | 0.00 | 0.00 | 0.00 | 70 | 1018.9 |
| 20260504024022 | 9 | 223 | 0.0 | 0.0 | 0.00 | 0.00 | 0.00 | 70 | 1018.7 |
| 20260504023521 | 9 | 223 | 0.0 | 0.0 | 0.00 | 0.00 | 0.00 | 70 | 1018.6 |
| 20260504023026 | 9 | 223 | 0.0 | 0.0 | 0.00 | 0.00 | 0.00 | 69 | 1018.8 |
| 20260504022521 | 9 | 223 | 0.0 | 0.0 | 0.00 | 0.00 | 0.00 | 68 | 1018.7 |
| 20260504022020 | 10 | 223 | 0.0 | 0.0 | 0.00 | 0.00 | 0.00 | 68 | 1018.6 |
| 20260504021622 | 10 | 223 | 0.0 | 0.0 | 0.00 | 0.00 | 0.00 | 67 | 1018.5 |
| 20260504021020 | 10 | 223 | 0.0 | 0.0 | 0.00 | 0.00 | 0.00 | 67 | 1018.4 |
| 20260504020520 | 10 | 223 | 0.0 | 0.0 | 0.00 | 0.00 | 0.00 | 66 | 1018.3 |
| 20260504020019 | 10 | 223 | 0.0 | 0.0 | 0.00 | 0.00 | 0.00 | 65 | 1018.3 |
| 20260504015519 | 10 | 223 | 0.0 | 0.0 | 0.00 | 0.00 | 0.00 | 64 | 1018.3 |
| 20260504015022 | 11 | 211 | 0.0 | 0.0 | 0.00 | 0.00 | 0.00 | 63 | 1018.2 |
| 20260504014524 | 11 | 212 | 0.0 | 0.0 | 0.00 | 0.00 | 0.00 | 61 | 1017.9 |
| 20260504014018 | 11 | 209 | 0.0 | 0.0 | 0.00 | 0.00 | 0.00 | 60 | 1017.7 |
| 20260504013518 | 11 | 209 | 0.0 | 0.0 | 0.00 | 0.00 | 0.00 | 59 | 1017.6 |
| 20260504013021 | 11 | 209 | 0.0 | 0.0 | 0.00 | 0.00 | 0.00 | 58 | 1017.5 |
| 20260504012520 | 11 | 209 | 0.0 | 0.0 | 0.00 | 0.00 | 0.00 | 57 | 1017.5 |
| 20260504012018 | 12 | 209 | 0.0 | 0.0 | 0.00 | 0.00 | 0.00 | 54 | 1017.4 |
| 20260504011522 | 12 | 209 | 0.0 | 0.0 | 0.00 | 0.00 | 0.00 | 53 | 1017.5 |
| 20260504011017 | 12 | 209 | 0.0 | 0.0 | 0.00 | 0.00 | 0.00 | 52 | 1017.5 |
| 20260504010517 | 12 | 209 | 0.0 | 0.0 | 0.00 | 0.00 | 0.00 | 51 | 1017.3 |
| 20260504010017 | 12 | 209 | 0.0 | 0.0 | 0.00 | 0.00 | 0.00 | 51 | 1017.3 |
| 20260504005518 | 12 | 209 | 0.0 | 0.0 | 0.00 | 0.00 | 0.00 | 50 | 1017.3 |
| 20260504005021 | 13 | 209 | 0.0 | 0.0 | 0.00 | 0.00 | 0.00 | 50 | 1017.3 |
| 20260504004520 | 13 | 209 | 0.0 | 0.0 | 0.00 | 0.00 | 0.00 | 48 | 1017.2 |
| 20260504004017 | 14 | 209 | 0.0 | 0.0 | 0.00 | 0.00 | 0.00 | 47 | 1017.2 |
| 20260504003516 | 15 | 209 | 0.0 | 1.6 | 0.00 | 0.00 | 0.00 | 45 | 1017.2 |
| 20260504003016 | 15 | 221 | 0.0 | 1.6 | 0.00 | 0.00 | 0.00 | 43 | 1017.1 |
| 20260504002519 | 15 | 221 | 0.0 | 1.6 | 0.00 | 0.00 | 0.00 | 42 | 1017.1 |
| 20260504002018 | 15 | 221 | 0.0 | 1.6 | 0.00 | 0.00 | 0.00 | 42 | 1017.1 |
| 20260504001516 | 15 | 221 | 0.0 | 1.6 | 0.00 | 0.00 | 0.00 | 41 | 1016.9 |
| 20260504001016 | 15 | 221 | 0.0 | 1.6 | 0.00 | 0.00 | 0.00 | 40 | 1017.0 |
| 20260504000515 | 16 | 221 | 0.0 | 0.0 | 0.00 | 0.00 | 0.00 | 40 | 1017.0 |
| 20260504000015 | 16 | 221 | 0.0 | 1.6 | 0.00 | 0.00 | 0.00 | 38 | 1017.0 |
| 20260503235516 | 16 | 213 | 0.0 | 8.0 | 0.00 | 0.00 | 0.00 | 37 | 1017.0 |
| 20260503235015 | 17 | 217 | 0.0 | 8.0 | 0.00 | 0.00 | 0.00 | 35 | 1017.0 |
| 20260503234516 | 17 | 202 | 1.6 | 6.4 | 0.00 | 0.00 | 0.00 | 34 | 1016.9 |
| 20260503234015 | 17 | 205 | 0.0 | 8.0 | 0.00 | 0.00 | 0.00 | 34 | 1016.8 |
| 20260503233515 | 17 | 212 | 3.2 | 8.0 | 0.00 | 0.00 | 0.00 | 33 | 1016.8 |
| 20260503233014 | 17 | 211 | 1.6 | 4.8 | 0.00 | 0.00 | 0.00 | 32 | 1016.9 |
| 20260503232516 | 17 | 211 | 0.0 | 4.8 | 0.00 | 0.00 | 0.00 | 33 | 1016.7 |